Location: Piotrkow Trybunalski
(51.4000°N, 19.6830°E)
Time: 14:52:29
(UTC+01:00)

Vanguard 2 - Pass Details

Date: 11 February 2023
Orbit: 553 x 2927 km, 32.9° (Epoch: 24 March)

Event Time Altitude Azimuth Distance (km) Brightness Sun altitude
Rises 01:59:33 0° 267° (W) 6,249 - -45.2°
Reaches altitude 10° 02:06:14 10° 248° (WSW) 5,549 - -44.5°
Maximum altitude 02:14:13 15° 220° (SW) 5,286 - -43.5°
Drops below altitude 10° 02:22:29 10° 192° (SSW) 5,712 - -42.5°
Sets 02:29:42 0° 173° (S) 6,527 - -41.6°
